Location: Tauranga
(37.6860°S, 176.1670°E)
Time: 17:06:55
(UTC+13:00)

Cosmos 1633 - Pass Details

Date: 24 January 2019
Orbit: 465 x 483 km, 82.5° (Epoch: 23 October)

Event Time Altitude Azimuth Distance (km) Brightness Sun altitude
Rises 21:32:11 0° 163° (SSE) 2,544 6.5 -10.7°
Reaches altitude 10° 21:35:32 10° 130° (SE) 1,657 5.1 -11.2°
Maximum altitude 21:36:54 12° 107° (ESE) 1,546 4.8 -11.5°
Enters shadow 21:37:40 11° 95° (E) 1,577 4.7 -11.6°
